EW5954 Weather Reports


Display with metric or nautical units.
time (UTC)temp
F
wind
direction
speed
MPH
gust
MPH
rain 1hr
in
rain 24hr
in
rain mn
in
humidity
%
barometer
mb
20260906235407 67 249 1.0 2.0 0.00 0.00 0.00 74
20260906234902 67 303 0.0 1.0 0.00 0.00 0.00 74
20260906234401 67 325 0.0 1.0 0.00 0.00 0.00 73
20260906233856 67 250 0.0 3.0 0.00 0.00 0.00 72
20260906233355 68 299 1.0 3.0 0.00 0.00 0.00 71
20260906232849 68 222 2.0 2.0 0.00 0.00 0.00 72
20260906232344 68 274 2.0 3.0 0.00 0.00 0.00 72
20260906231838 68 299 1.0 2.0 0.00 0.00 0.00 74
20260906231334 68 257 1.0 3.0 0.00 0.00 0.00 73
20260906230833 68 305 3.0 3.0 0.00 0.00 0.00 73
20260906230329 68 213 2.0 3.0 0.00 0.00 0.00 73
20260906225826 69 286 1.0 3.0 0.00 0.00 0.00 73
20260906225322 69 302 1.0 3.0 0.00 0.00 0.00 73
20260906224818 69 283 2.0 3.0 0.00 0.00 0.00 73
20260906224314 69 280 1.0 3.0 0.00 0.00 0.00 73
20260906223810 69 287 2.0 3.0 0.00 0.00 0.00 73
20260906223306 69 232 4.0 5.0 0.00 0.00 0.00 73
20260906222804 70 253 2.0 3.0 0.00 0.00 0.00 73
20260906222305 71 314 0.0 3.0 0.00 0.00 0.00 72
20260906221801 71 325 1.0 5.0 0.00 0.00 0.00 72
20260906221255 71 329 1.0 5.0 0.00 0.00 0.00 73
20260906220751 71 231 3.0 5.0 0.00 0.00 0.00 73
20260906220246 71 248 3.0 6.0 0.00 0.00 0.00 72
20260906215744 71 185 3.0 3.0 0.00 0.00 0.00 72
20260906215239 72 258 3.0 5.0 0.00 0.00 0.00 72
20260906214737 73 235 3.0 5.0 0.00 0.00 0.00 71
20260906214232 73 269 2.0 6.0 0.00 0.00 0.00 71
20260906213726 73 188 2.0 5.0 0.00 0.00 0.00 70
20260906213226 73 311 3.0 6.0 0.00 0.00 0.00 70
20260906212722 73 295 1.0 3.0 0.00 0.00 0.00 70
20260906212219 73 213 4.0 5.0 0.00 0.00 0.00 69
20260906211713 73 303 2.0 3.0 0.00 0.00 0.00 72
20260906211209 73 240 2.0 5.0 0.00 0.00 0.00 71
20260906210704 73 234 3.0 7.0 0.00 0.00 0.00 71
20260906210203 73 144 2.0 5.0 0.00 0.00 0.00 72
20260906205658 73 229 4.0 6.0 0.00 0.00 0.00 71
20260906205154 73 332 0.0 3.0 0.00 0.00 0.00 70
20260906204649 74 301 2.0 7.0 0.00 0.00 0.00 70
20260906204149 75 314 2.0 5.0 0.00 0.00 0.00 67
20260906203648 75 342 0.0 3.0 0.00 0.00 0.00 68
20260906203144 75 195 1.0 5.0 0.00 0.00 0.00 69
20260906202641 74 338 1.0 5.0 0.00 0.00 0.00 70
20260906202139 74 284 2.0 2.0 0.00 0.00 0.00 69
20260906201635 74 326 3.0 6.0 0.00 0.00 0.00 71
20260906201133 74 304 1.0 5.0 0.00 0.00 0.00 71
20260906200630 74 195 2.0 3.0 0.00 0.00 0.00 70
20260906200126 72 310 3.0 8.0 0.00 0.00 0.00 72
20260906195621 74 232 5.0 7.0 0.00 0.00 0.00 69
20260906195118 74 283 0.0 5.0 0.00 0.00 0.00 68
20260906194613 74 280 1.0 2.0 0.00 0.00 0.00 69
20260906194108 73 291 2.0 5.0 0.00 0.00 0.00 69
20260906193603 74 193 4.0 6.0 0.00 0.00 0.00 70
20260906193058 73 316 1.0 3.0 0.00 0.00 0.00 70
20260906192554 74 193 1.0 7.0 0.00 0.00 0.00 69
20260906192053 74 294 2.0 5.0 0.00 0.00 0.00 69
20260906191548 74 249 4.0 7.0 0.00 0.00 0.00 70
20260906191047 73 268 2.0 5.0 0.00 0.00 0.00 68
20260906190547 74 327 2.0 5.0 0.00 0.00 0.00 69
20260906190042 74 210 4.0 6.0 0.00 0.00 0.00 69
20260906185541 74 298 3.0 5.0 0.00 0.00 0.00 67
20260906185040 73 277 3.0 6.0 0.00 0.00 0.00 68
20260906184535 74 312 0.0 3.0 0.00 0.00 0.00 68
20260906184030 74 283 3.0 5.0 0.00 0.00 0.00 70
20260906183526 72 294 0.0 5.0 0.00 0.00 0.00 72
20260906183022 73 278 2.0 7.0 0.00 0.00 0.00 72
20260906182517 72 292 3.0 3.0 0.00 0.00 0.00 72
20260906182013 72 313 1.0 2.0 0.00 0.00 0.00 72
20260906181508 73 225 5.0 7.0 0.00 0.00 0.00 69
20260906181004 73 280 2.0 3.0 0.00 0.00 0.00 71
20260906180458 73 267 2.0 5.0 0.00 0.00 0.00 70
20260906175956 73 305 3.0 5.0 0.00 0.00 0.00 70
20260906175451 73 231 5.0 6.0 0.00 0.00 0.00 69
20260906174950 71 252 3.0 3.0 0.00 0.00 0.00 71
20260906174449 72 218 3.0 7.0 0.00 0.00 0.00 72
20260906173944 73 214 4.0 7.0 0.00 0.00 0.00 69
20260906173439 72 287 2.0 5.0 0.00 0.00 0.00 72
20260906172939 73 316 1.0 6.0 0.00 0.00 0.00 72
20260906172436 72 215 8.0 9.0 0.00 0.00 0.00 71
20260906171931 71 0 0.0 6.0 0.00 0.00 0.00 75
20260906171425 71 251 2.0 6.0 0.00 0.00 0.00 75
20260906170921 71 145 3.0 6.0 0.00 0.00 0.00 77
20260906170417 70 252 2.0 3.0 0.00 0.00 0.00 78
20260906165914 70 167 3.0 6.0 0.00 0.00 0.00 78
20260906165413 70 184 3.0 5.0 0.00 0.00 0.00 78
20260906164908 69 292 2.0 6.0 0.00 0.00 0.00 80
20260906164406 69 183 5.0 7.0 0.00 0.00 0.00 80
20260906163903 70 252 3.0 3.0 0.00 0.00 0.00 79
20260906163359 70 185 4.0 9.0 0.00 0.00 0.00 79
20260906162857 71 223 3.0 7.0 0.00 0.00 0.00 79
20260906162355 71 299 2.0 6.0 0.00 0.00 0.00 78
20260906161851 73 290 3.0 3.0 0.00 0.00 0.00 74
20260906161349 74 264 4.0 8.0 0.00 0.00 0.00 75
20260906160843 73 229 5.0 7.0 0.00 0.00 0.00 74
20260906160337 72 231 5.0 7.0 0.00 0.00 0.00 75
20260906155835 72 221 3.0 7.0 0.00 0.00 0.00 76
20260906155329 72 255 4.0 7.0 0.00 0.00 0.00 76
20260906154826 71 315 3.0 6.0 0.00 0.00 0.00 77
20260906154320 72 208 3.0 7.0 0.00 0.00 0.00 77
20260906153818 73 9 0.0 3.0 0.00 0.00 0.00 71
20260906153312 74 219 2.0 5.0 0.00 0.00 0.00 72
20260906152808 74 223 1.0 5.0 0.00 0.00 0.00 70
20260906152306 74 359 0.0 2.0 0.00 0.00 0.00 70
20260906151802 74 204 4.0 5.0 0.00 0.00 0.00 72
20260906151258 71 255 0.0 2.0 0.00 0.00 0.00 74
20260906150753 72 331 0.0 3.0 0.00 0.00 0.00 74
20260906150249 74 225 3.0 6.0 0.00 0.00 0.00 69
20260906145747 73 331 1.0 3.0 0.00 0.00 0.00 71
20260906145246 73 300 1.0 3.0 0.00 0.00 0.00 72
20260906144741 74 313 2.0 5.0 0.00 0.00 0.00 71
20260906144236 74 205 1.0 6.0 0.00 0.00 0.00 70
20260906143736 73 248 2.0 3.0 0.00 0.00 0.00 70
20260906143233 73 230 2.0 5.0 0.00 0.00 0.00 72
20260906142732 73 153 2.0 5.0 0.00 0.00 0.00 72
20260906142228 73 320 1.0 2.0 0.00 0.00 0.00 72
20260906141726 73 246 0.0 1.0 0.00 0.00 0.00 71
20260906141221 73 358 0.0 1.0 0.00 0.00 0.00 73
20260906140721 72 1 1.0 2.0 0.00 0.00 0.00 74
20260906140216 72 324 0.0 2.0 0.00 0.00 0.00 74
20260906135713 72 232 2.0 5.0 0.00 0.00 0.00 73
20260906135209 72 352 2.0 2.0 0.00 0.00 0.00 75
20260906134704 71 332 1.0 2.0 0.00 0.00 0.00 76
20260906134159 70 353 0.0 2.0 0.00 0.00 0.00 77
20260906133654 71 0 0.0 3.0 0.00 0.00 0.00 77
20260906133150 71 27 1.0 5.0 0.00 0.00 0.00 77
20260906132645 71 355 1.0 3.0 0.00 0.00 0.00 77
20260906132141 70 220 1.0 2.0 0.00 0.00 0.00 79
20260906131636 69 11 1.0 3.0 0.00 0.00 0.00 80
20260906131131 69 352 2.0 3.0 0.00 0.00 0.00 80
20260906130626 68 11 0.0 2.0 0.00 0.00 0.00 82
20260906130121 68 355 1.0 3.0 0.00 0.00 0.00 81
20260906125618 67 314 0.0 1.0 0.00 0.00 0.00 83
20260906125112 68 208 1.0 2.0 0.00 0.00 0.00 81
20260906124608 67 10 1.0 2.0 0.00 0.00 0.00 82
20260906124102 66 330 0.0 1.0 0.00 0.00 0.00 85
20260906123602 66 302 0.0 1.0 0.00 0.00 0.00 85
20260906123057 65 120 1.0 2.0 0.00 0.00 0.00 86
20260906122556 65 4 1.0 2.0 0.00 0.00 0.00 86
20260906122052 64 354 0.0 1.0 0.00 0.00 0.00 87
20260906121548 64 353 0.0 1.0 0.00 0.00 0.00 87
20260906121045 64 335 0.0 1.0 0.00 0.00 0.00 88
20260906120539 63 359 0.0 1.0 0.00 0.00 0.00 89
20260906120037 63 347 1.0 2.0 0.00 0.00 0.00 89
20260906115537 62 7 0.0 0.0 0.00 0.00 0.00 91
20260906115032 62 1 0.0 1.0 0.00 0.00 0.00 92
20260906114526 61 41 0.0 1.0 0.00 0.00 0.00 93
20260906114022 61 349 0.0 0.0 0.00 0.00 0.00 93
20260906113520 60 5 0.0 0.0 0.00 0.00 0.00 94
20260906113016 60 356 0.0 0.0 0.00 0.00 0.00 94
20260906112511 60 354 0.0 1.0 0.00 0.00 0.00 94
20260906112008 60 356 0.0 0.0 0.00 0.00 0.00 94
20260906111507 60 345 1.0 2.0 0.00 0.00 0.00 94
20260906111002 60 2 0.0 2.0 0.00 0.00 0.00 94
20260906110456 60 354 0.0 0.0 0.00 0.00 0.00 94
20260906105955 60 358 0.0 0.0 0.00 0.00 0.00 94
20260906105451 60 358 0.0 0.0 0.00 0.00 0.00 94
20260906104948 60 359 0.0 0.0 0.00 0.00 0.00 94
20260906104446 60 350 1.0 1.0 0.00 0.00 0.00 94
20260906103945 60 359 0.0 0.0 0.00 0.00 0.00 94
20260906103443 59 22 0.0 0.0 0.00 0.00 0.00 94
20260906102939 60 358 0.0 0.0 0.00 0.00 0.00 94
20260906102439 60 352 0.0 0.0 0.00 0.00 0.00 94
20260906101933 60 356 0.0 0.0 0.00 0.00 0.00 94
20260906101428 60 354 0.0 2.0 0.00 0.00 0.00 93
20260906100924 60 9 0.0 0.0 0.00 0.00 0.00 93
20260906100423 60 349 0.0 1.0 0.00 0.00 0.00 93
20260906095917 60 355 0.0 0.0 0.00 0.00 0.00 93
20260906095414 60 9 0.0 0.0 0.00 0.00 0.00 93
20260906094908 60 359 0.0 0.0 0.00 0.00 0.00 93
20260906094403 60 1 0.0 2.0 0.00 0.00 0.00 93
20260906093859 60 5 0.0 0.0 0.00 0.00 0.00 93
20260906093355 60 0 0.0 0.0 0.00 0.00 0.00 93
20260906092855 60 357 0.0 0.0 0.00 0.00 0.00 93
20260906092355 60 331 0.0 0.0 0.00 0.00 0.00 93
20260906091850 60 4 0.0 0.0 0.00 0.00 0.00 93
20260906091347 60 358 0.0 0.0 0.00 0.00 0.00 93
20260906090843 60 349 0.0 1.0 0.00 0.00 0.00 92
20260906090342 60 356 0.0 0.0 0.00 0.00 0.00 92
20260906085836 60 3 0.0 0.0 0.00 0.00 0.00 92
20260906085336 60 358 0.0 0.0 0.00 0.00 0.00 92
20260906084831 61 358 0.0 0.0 0.00 0.00 0.00 92
20260906084330 61 7 0.0 0.0 0.00 0.00 0.00 91
20260906083825 61 357 0.0 0.0 0.00 0.00 0.00 91
20260906083321 61 0 0.0 0.0 0.00 0.00 0.00 91
20260906082821 61 356 0.0 0.0 0.00 0.00 0.00 91
20260906082316 61 42 0.0 0.0 0.00 0.00 0.00 91
20260906081812 61 1 0.0 0.0 0.00 0.00 0.00 91
20260906081307 61 2 0.0 0.0 0.00 0.00 0.00 91
20260906080803 61 0 0.0 0.0 0.00 0.00 0.00 91
20260906080300 62 357 0.0 0.0 0.00 0.00 0.00 91
20260906075759 62 2 0.0 0.0 0.00 0.00 0.00 90
20260906075253 62 5 0.0 0.0 0.00 0.00 0.00 90
20260906074748 62 3 0.0 0.0 0.00 0.00 0.00 90
20260906074248 62 357 0.0 0.0 0.00 0.00 0.00 90
20260906073747 62 359 0.0 0.0 0.00 0.00 0.00 90
20260906073242 62 354 0.0 1.0 0.00 0.00 0.00 90
20260906072738 62 355 0.0 0.0 0.00 0.00 0.00 89
20260906072234 63 358 0.0 0.0 0.00 0.00 0.00 89
20260906071729 63 4 0.0 1.0 0.00 0.00 0.00 89
20260906071229 63 20 0.0 1.0 0.00 0.00 0.00 89
20260906070726 63 135 0.0 1.0 0.00 0.00 0.00 89
20260906070221 63 354 0.0 1.0 0.00 0.00 0.00 88
20260906065721 63 0 0.0 0.0 0.00 0.00 0.00 88
20260906065216 63 358 0.0 0.0 0.00 0.00 0.00 88
20260906064712 63 359 0.0 0.0 0.00 0.00 0.00 89
20260906064207 63 359 0.0 0.0 0.00 0.00 0.00 89
20260906063702 63 351 0.0 0.0 0.00 0.00 0.00 89
20260906063158 63 355 0.0 1.0 0.00 0.00 0.00 89
20260906062653 63 359 0.0 0.0 0.00 0.00 0.00 89
20260906062152 63 350 0.0 1.0 0.00 0.00 0.00 89
20260906061648 63 350 0.0 1.0 0.00 0.00 0.00 89
20260906061143 63 352 0.0 0.0 0.00 0.00 0.00 89
20260906060639 63 351 0.0 0.0 0.00 0.00 0.00 89
20260906060136 63 351 0.0 0.0 0.00 0.00 0.00 89
20260906055632 63 354 0.0 0.0 0.00 0.00 0.00 89
20260906055127 63 357 0.0 0.0 0.00 0.00 0.00 90
20260906054622 63 2 0.0 1.0 0.00 0.00 0.00 90
20260906054117 63 359 0.0 0.0 0.00 0.00 0.00 90
20260906053614 63 3 0.0 0.0 0.00 0.00 0.00 90
20260906053108 63 345 0.0 1.0 0.00 0.00 0.00 90
20260906052604 63 348 0.0 1.0 0.00 0.00 0.00 90
20260906052101 63 340 0.0 1.0 0.00 0.00 0.00 90
20260906051556 63 14 1.0 2.0 0.00 0.00 0.00 90
20260906051051 63 352 0.0 1.0 0.00 0.00 0.00 90
20260906050546 63 352 0.0 0.0 0.00 0.00 0.00 90
20260906050042 64 8 0.0 1.0 0.00 0.00 0.00 90
20260906045539 64 357 0.0 1.0 0.00 0.00 0.00 89
20260906045036 64 357 0.0 1.0 0.00 0.00 0.00 89
20260906044531 64 358 0.0 1.0 0.00 0.00 0.00 89
20260906044026 64 19 0.0 1.0 0.00 0.00 0.00 89
20260906043522 64 1 0.0 2.0 0.00 0.00 0.00 89
20260906043018 64 354 0.0 1.0 0.00 0.00 0.00 89
20260906042517 64 6 0.0 1.0 0.00 0.00 0.00 89
20260906042011 64 48 0.0 1.0 0.00 0.00 0.00 88
20260906041508 64 12 0.0 1.0 0.00 0.00 0.00 88
20260906041008 64 1 0.0 2.0 0.00 0.00 0.00 88
20260906040503 64 8 0.0 1.0 0.00 0.00 0.00 88
20260906035957 64 4 0.0 0.0 0.00 0.00 0.00 88
20260906035453 64 358 0.0 1.0 0.00 0.00 0.00 87
20260906034948 64 340 0.0 1.0 0.00 0.00 0.00 87
20260906034443 64 6 0.0 1.0 0.00 0.00 0.00 87
20260906033939 64 353 0.0 0.0 0.00 0.00 0.00 87
20260906033438 64 5 0.0 0.0 0.00 0.00 0.00 87
20260906032935 64 359 0.0 0.0 0.00 0.00 0.00 86
20260906032431 64 2 0.0 0.0 0.00 0.00 0.00 86
20260906031924 64 2 0.0 0.0 0.00 0.00 0.00 86
20260906031420 64 2 0.0 0.0 0.00 0.00 0.00 86
20260906030915 64 3 0.0 1.0 0.00 0.00 0.00 86
20260906030410 65 357 0.0 0.0 0.00 0.00 0.00 86
20260906025904 65 1 0.0 0.0 0.00 0.00 0.00 86
20260906025359 65 5 0.0 0.0 0.00 0.00 0.00 85
20260906024857 65 4 0.0 2.0 0.00 0.00 0.00 85
20260906024356 65 2 0.0 0.0 0.00 0.00 0.00 85
20260906023847 65 14 0.0 1.0 0.00 0.00 0.00 85
20260906023343 65 356 0.0 0.0 0.00 0.00 0.00 85
20260906022837 66 359 0.0 0.0 0.00 0.00 0.00 85
20260906022332 66 0 0.0 0.0 0.00 0.00 0.00 84
20260906021828 66 1 0.0 0.0 0.00 0.00 0.00 84
20260906021327 66 66 0.0 1.0 0.00 0.00 0.00 84
20260906020822 66 345 0.0 0.0 0.00 0.00 0.00 83
20260906020321 66 359 0.0 1.0 0.00 0.00 0.00 83
20260906015816 66 355 0.0 1.0 0.00 0.00 0.00 83
20260906015314 67 357 0.0 3.0 0.00 0.00 0.00 83
20260906014809 67 348 0.0 1.0 0.00 0.00 0.00 83
20260906014304 67 1 2.0 2.0 0.00 0.00 0.00 83
20260906013801 67 359 0.0 2.0 0.00 0.00 0.00 83
20260906013255 67 353 0.0 1.0 0.00 0.00 0.00 83
20260906012750 67 356 0.0 0.0 0.00 0.00 0.00 83
20260906012245 67 351 0.0 0.0 0.00 0.00 0.00 82
20260906011741 67 3 1.0 2.0 0.00 0.00 0.00 82
20260906011240 68 37 0.0 1.0 0.00 0.00 0.00 82
20260906010736 68 333 0.0 1.0 0.00 0.00 0.00 81
20260906010232 68 356 0.0 2.0 0.00 0.00 0.00 81
20260906005726 68 17 0.0 3.0 0.00 0.00 0.00 81
20260906005220 68 3 0.0 2.0 0.00 0.00 0.00 80
20260906004720 68 1 0.0 5.0 0.00 0.00 0.00 80
20260906004215 69 355 0.0 2.0 0.00 0.00 0.00 79
20260906003710 69 11 0.0 1.0 0.00 0.00 0.00 78
20260906003206 69 11 0.0 2.0 0.00 0.00 0.00 78
20260906002706 69 0 0.0 1.0 0.00 0.00 0.00 77
20260906002201 69 2 0.0 0.0 0.00 0.00 0.00 77
20260906001656 70 5 0.0 0.0 0.00 0.00 0.00 76
20260906001155 70 21 0.0 2.0 0.00 0.00 0.00 76
20260906000651 70 0 0.0 0.0 0.00 0.00 0.00 75
20260906000146 70 81 1.0 2.0 0.00 0.00 0.00 74
20260905235645 70 4 0.0 3.0 0.00 0.00 0.00 74